Weather History for Hailey, ID

Change the Weather History Date:

Saturday, January 12, 2013

  Actual Average Record
Temperature  
Mean Temperature 9 °F -  
Max Temperature 23 °F 33 °F 42 °F (2002)
Min Temperature -5 °F 14 °F -7 °F (2007)
Degree Days  
Heating Degree Days 56    
Moisture  
Dew Point -4 °F    
Average Humidity 79    
Maximum Humidity 92    
Minimum Humidity 66    
Precipitation  
Precipitation 0.00 in - - ()
Sea Level Pressure  
Sea Level Pressure 29.99 in    
Wind  
Wind Speed 7 mph (NW)    
Max Wind Speed 12 mph    
Max Gust Speed -    
Visibility 10 miles    
Events Snow    
Averages and records for this station are not official NWS values.
T = Trace of Precipitation, MM = Missing Value Source: NWS Daily Summary

Daily Weather History Graph

Daily Weather History Graph

Search for Another Location

Airport:

Trip Planner

Search our weather history database for the weather conditions in past years. The results will help you decide how hot, cold, wet, or windy it might be!

Date:

Astronomy

Jan. 12, 2013 Rise Set
Actual Time 8:08 AM MST 5:23 PM MST
Civil Twilight 7:36 AM MST 5:55 PM MST
Nautical Twilight 7:00 AM MST 6:30 PM MST
Astronomical Twilight 6:26 AM MST 7:05 PM MST
Moon 8:26 AM MST (1/12) 7:01 PM MST (1/12)
Length of Visible Light 10h 18m
Length of Day
9h 15m
New Moon, 1% of the Moon is Illuminated
Jan 12
New Moon
Jan 18
First Quarter
Jan 26
Full
Feb 3
Last Quarter
Feb 10
New

Hourly Weather History & Observations

Time (MST) Temp. Windchill Dew Point Humidity Pressure Visibility Wind Dir Wind Speed Gust Speed Precip Events Conditions
12:15 AM 1.4 °F -8.3 °F -2.2 °F 85% 29.94 in 10.0 mi North 4.6 mph - N/A   Clear
12:35 AM 3.2 °F -7.8 °F -0.4 °F 85% 29.95 in 10.0 mi NW 5.8 mph - N/A   Clear
12:55 AM 1.4 °F -8.3 °F -4.0 °F 78% 29.95 in 10.0 mi NNW 4.6 mph - N/A   Clear
1:15 AM -0.4 °F -12.0 °F -4.0 °F 85% 29.95 in 10.0 mi North 5.8 mph - N/A   Clear
1:35 AM -0.4 °F -15.7 °F -4.0 °F 85% 29.96 in 10.0 mi NNW 9.2 mph - N/A   Clear
1:55 AM -0.4 °F -12.0 °F -5.8 °F 78% 29.96 in 10.0 mi NNW 5.8 mph - N/A   Clear
2:15 AM -0.4 °F -15.7 °F -4.0 °F 85% 29.96 in 10.0 mi NNW 9.2 mph - N/A   Clear
2:35 AM -2.2 °F -18.0 °F -5.8 °F 85% 29.97 in 10.0 mi NNW 9.2 mph - N/A   Clear
2:55 AM -0.4 °F -16.7 °F -5.8 °F 78% 29.97 in 10.0 mi NNW 10.4 mph - N/A   Clear
3:15 AM -4.0 °F -20.2 °F -7.6 °F 85% 29.97 in 10.0 mi NW 9.2 mph - N/A   Clear
3:35 AM -0.4 °F -17.6 °F -5.8 °F 78% 29.97 in 10.0 mi NNW 11.5 mph - N/A   Clear
3:55 AM -4.0 °F -21.2 °F -7.6 °F 85% 29.96 in 10.0 mi NW 10.4 mph - N/A   Clear
4:15 AM -2.2 °F -18.9 °F -7.6 °F 78% 29.96 in 10.0 mi NNW 10.4 mph - N/A   Clear
4:35 AM -4.0 °F -20.2 °F -7.6 °F 85% 29.96 in 10.0 mi NW 9.2 mph - N/A   Clear
4:55 AM -0.4 °F -12.0 °F -5.8 °F 78% 29.96 in 10.0 mi NNW 5.8 mph - N/A   Clear
5:15 AM -2.2 °F -18.0 °F -7.6 °F 78% 29.96 in 10.0 mi NNW 9.2 mph - N/A   Clear
5:35 AM -0.4 °F -15.7 °F -5.8 °F 78% 29.96 in 10.0 mi NW 9.2 mph - N/A   Clear
5:55 AM -2.2 °F -18.0 °F -5.8 °F 85% 29.96 in 10.0 mi NW 9.2 mph - N/A   Clear
6:47 AM 23.0 °F 15.8 °F 14.0 °F 68% 29.98 in 10.0 mi NNW 5.8 mph - N/A   Clear
7:47 AM -5.8 °F -19.9 °F -11.2 °F 77% 29.99 in 10.0 mi WNW 6.9 mph - N/A   Partly Cloudy
8:47 AM -5.8 °F -21.2 °F -9.4 °F 84% 30.01 in 10.0 mi WNW 8.1 mph - N/A   Partly Cloudy
9:50 AM -0.4 °F -14.7 °F -7.6 °F 72% 30.03 in 10.0 mi WNW 8.1 mph - N/A   Scattered Clouds
10:47 AM -0.4 °F -14.7 °F -7.6 °F 72% 30.03 in 10.0 mi WNW 8.1 mph - N/A   Mostly Cloudy
11:55 AM 5.0 °F -4.1 °F -4.0 °F 66% 30.02 in 10.0 mi WNW 4.6 mph - N/A   Mostly Cloudy
12:47 PM 6.8 °F - -2.2 °F 67% 30.00 in 10.0 mi Calm Calm - N/A   Mostly Cloudy
1:47 PM 8.6 °F - 1.4 °F 73% 29.94 in 10.0 mi Calm Calm - N/A   Mostly Cloudy
2:47 PM 8.6 °F 0.1 °F 3.2 °F 79% 29.99 in 10.0 mi ESE 4.6 mph - N/A   Mostly Cloudy
3:47 PM 8.6 °F 0.1 °F 3.2 °F 79% 29.99 in 10.0 mi ESE 4.6 mph - N/A   Mostly Cloudy
4:55 PM 6.8 °F -2.0 °F 1.4 °F 79% 29.99 in 10.0 mi SE 4.6 mph - N/A   Mostly Cloudy
6:47 PM 3.2 °F -4.2 °F 1.4 °F 92% 30.00 in 4.0 mi West 3.5 mph - N/A Snow Light Snow
7:47 PM 3.2 °F -7.8 °F -0.4 °F 85% 30.02 in 10.0 mi WNW 5.8 mph - N/A   Overcast
8:47 PM 3.2 °F -9.1 °F -2.2 °F 78% 30.02 in 10.0 mi WNW 6.9 mph - N/A   Overcast
9:47 PM 3.2 °F -9.1 °F -2.2 °F 78% 30.03 in 10.0 mi WNW 6.9 mph - N/A   Mostly Cloudy
10:15 PM 3.2 °F -11.3 °F -2.2 °F 78% 30.03 in 10.0 mi NNW 9.2 mph - N/A   Mostly Cloudy
10:35 PM 1.4 °F -12.5 °F -4.0 °F 78% 30.03 in 10.0 mi NW 8.1 mph - N/A   Scattered Clouds
10:47 PM 1.4 °F -13.5 °F -4.0 °F 78% 30.00 in 10.0 mi WNW 9.2 mph - N/A   Mostly Cloudy
10:55 PM 1.4 °F -11.3 °F -4.0 °F 78% 30.04 in 10.0 mi NW 6.9 mph - N/A   Clear
11:15 PM 1.4 °F -11.3 °F -4.0 °F 78% 30.05 in 10.0 mi NW 6.9 mph - N/A   Clear
11:35 PM -0.4 °F -15.7 °F -5.8 °F 78% 30.05 in 10.0 mi NW 9.2 mph - N/A   Clear
11:55 PM -0.4 °F -15.7 °F -5.8 °F 78% 30.05 in 10.0 mi NW 9.2 mph - N/A   Clear